Volver al catálogo

HEAD-2E

ActivoComunicacionesSSO
NORAD 49319·PAYLOAD·🇨🇳 China
Este nombre de satélite aún no ha sido confirmado por fuentes oficiales.

Lanzado Oct 14, 2021 desde Taiyuan Satellite Launch Center

Loading…

Próximos Pases (próximas 24 horas)

TLE

ActualizadoSource: Space-Track

Época: Sep 14, 2026, 15:45 UTC

1 49319U 21091E   26257.65656584  .00035632  00000-0  29314-3 0  9997
2 49319  97.3620 122.9377 0003734 355.8806   4.2425 15.70328574275360

Sigue HEAD-2E en tiempo real con AllMySat

Download on the App Store